Hourly Weather Yerevan

Today, 22 January, Friday

Time Temperature Precipitation Wind Pressure Humidity
00:00 -4°C° 0 mm 1 mps 701 mmHg 43%
01:00 -6°C° 0 mm 1 mps 701 mmHg 44%
02:00 -6°C° 0 mm 1 mps 701 mmHg 44%
03:00 -6°C° 0 mm 1 mps 701 mmHg 44%
04:00 -7°C° 0 mm 1 mps 701 mmHg 45%
05:00 -7°C° 0 mm 1 mps 701 mmHg 45%
06:00 -7°C° 0 mm 1 mps 701 mmHg 45%
07:00 -7°C° 0 mm 1 mps 701 mmHg 43%
08:00 -6°C° 0 mm 1 mps 701 mmHg 42%
09:00 -6°C° 0 mm 1 mps 701 mmHg 40%
10:00 -3°C° 0 mm 1 mps 701 mmHg 39%
11:00 -2°C° 0 mm 1 mps 701 mmHg 37%
12:00 -1°C° 0 mm 1 mps 700 mmHg 35%
13:00 -1°C° 0 mm 1 mps 700 mmHg 35%
14:00 0°C° 0 mm 1 mps 699 mmHg 34%
15:00 0°C° 0 mm 1 mps 699 mmHg 34%
16:00 -1°C° 0 mm 1 mps 699 mmHg 37%
17:00 -2°C° 0 mm 1 mps 699 mmHg 40%
18:00 -6°C° 0 mm 2 mps 699 mmHg 42%
19:00 -6°C° 0 mm 2 mps 699 mmHg 42%
20:00 -6°C° 0 mm 2 mps 699 mmHg 41%
21:00 -7°C° 0 mm 2 mps 699 mmHg 40%
22:00 -7°C° 0 mm 2 mps 699 mmHg 39%
23:00 -7°C° 0 mm 2 mps 699 mmHg 39%

Tomorrow, 23 January, Saturday

Time Temperature Precipitation Wind Pressure Humidity
00:00 -7°C° 0 mm 2 mps 699 mmHg 38%
01:00 -6°C° 0 mm 1 mps 698 mmHg 39%
02:00 -7°C° 0 mm 1 mps 698 mmHg 39%
03:00 -7°C° 0 mm 1 mps 697 mmHg 39%
04:00 -7°C° 0 mm 1 mps 697 mmHg 39%
05:00 -7°C° 0 mm 1 mps 697 mmHg 39%
06:00 -8°C° 0 mm 1 mps 697 mmHg 39%
07:00 -7°C° 0 mm 1 mps 697 mmHg 37%
08:00 -7°C° 0 mm 1 mps 697 mmHg 35%
09:00 -6°C° 0 mm 1 mps 697 mmHg 33%
10:00 -4°C° 0 mm 1 mps 697 mmHg 32%
11:00 -3°C° 0 mm 1 mps 697 mmHg 32%
12:00 -1°C° 0 mm 1 mps 696 mmHg 31%
13:00 -1°C° 0 mm 1 mps 696 mmHg 31%
14:00 -1°C° 0 mm 1 mps 696 mmHg 31%
15:00 -1°C° 0 mm 0 mps 695 mmHg 31%
16:00 -1°C° 0 mm 1 mps 695 mmHg 33%
17:00 -2°C° 0 mm 1 mps 695 mmHg 36%
18:00 -3°C° 0 mm 1 mps 695 mmHg 38%
19:00 -4°C° 0 mm 1 mps 695 mmHg 37%
20:00 -4°C° 0 mm 1 mps 695 mmHg 36%
21:00 -4°C° 0 mm 1 mps 696 mmHg 35%
22:00 -4°C° 0 mm 1 mps 695 mmHg 35%
23:00 -6°C° 0 mm 1 mps 695 mmHg 34%

Day after tomorrow, 24 January, Sunday

Time Temperature Precipitation Wind Pressure Humidity
00:00 -6°C° 0 mm 1 mps 695 mmHg 34%
01:00 -6°C° 0 mm 1 mps 695 mmHg 34%
02:00 -6°C° 0 mm 1 mps 695 mmHg 33%
03:00 -6°C° 0 mm 1 mps 695 mmHg 33%
04:00 -6°C° 0 mm 1 mps 694 mmHg 33%
05:00 -7°C° 0 mm 1 mps 694 mmHg 33%
06:00 -7°C° 0 mm 1 mps 694 mmHg 33%
07:00 -6°C° 0 mm 1 mps 695 mmHg 31%
08:00 -4°C° 0 mm 1 mps 695 mmHg 30%
09:00 -3°C° 0 mm 1 mps 695 mmHg 29%
10:00 -2°C° 0 mm 1 mps 695 mmHg 28%
11:00 -2°C° 0 mm 0 mps 695 mmHg 27%
12:00 -1°C° 0 mm 0 mps 694 mmHg 25%
13:00 0°C° 0 mm 0 mps 694 mmHg 26%
14:00 +1°C° 0 mm 0 mps 694 mmHg 26%
15:00 +1°C° 0 mm 0 mps 694 mmHg 26%
16:00 0°C° 0 mm 0 mps 694 mmHg 29%
17:00 -1°C° 0 mm 0 mps 694 mmHg 32%
18:00 -2°C° 0 mm 1 mps 694 mmHg 34%
19:00 -2°C° 0 mm 1 mps 694 mmHg 35%
20:00 -2°C° 0 mm 1 mps 694 mmHg 35%
21:00 -2°C° 0 mm 1 mps 694 mmHg 36%
22:00 -2°C° 0 mm 1 mps 694 mmHg 36%
23:00 -2°C° 0 mm 1 mps 694 mmHg 36%

25 January, Monday

Time Temperature Precipitation Wind Pressure Humidity
00:00 -3°C° 0 mm 1 mps 694 mmHg 36%
01:00 -3°C° 0 mm 1 mps 694 mmHg 36%
02:00 -3°C° 0 mm 1 mps 694 mmHg 36%
03:00 -3°C° 0 mm 1 mps 694 mmHg 36%
04:00 -3°C° 0 mm 1 mps 693 mmHg 37%
05:00 -4°C° 0 mm 1 mps 693 mmHg 37%
06:00 -4°C° 0 mm 1 mps 693 mmHg 37%
07:00 -3°C° 0 mm 1 mps 694 mmHg 36%
08:00 -2°C° 0 mm 1 mps 694 mmHg 34%
09:00 -1°C° 0 mm 1 mps 694 mmHg 32%
10:00 0°C° 0 mm 1 mps 694 mmHg 31%
11:00 0°C° 0 mm 0 mps 694 mmHg 29%
12:00 +2°C° 0 mm 0 mps 693 mmHg 28%
13:00 +2°C° 0 mm 0 mps 693 mmHg 28%
14:00 +3°C° 0 mm 0 mps 693 mmHg 28%
15:00 +3°C° 0 mm 0 mps 692 mmHg 28%
16:00 +2°C° 0 mm 0 mps 692 mmHg 31%
17:00 0°C° 0 mm 0 mps 692 mmHg 35%
18:00 -1°C° 0 mm 0 mps 692 mmHg 38%
19:00 -1°C° 0 mm 0 mps 693 mmHg 38%
20:00 0°C° 0 mm 1 mps 693 mmHg 38%
21:00 -1°C° 0 mm 1 mps 693 mmHg 38%
22:00 -1°C° 0 mm 1 mps 693 mmHg 38%
23:00 -1°C° 0 mm 1 mps 693 mmHg 38%

26 January, Tuesday

Time Temperature Precipitation Wind Pressure Humidity
00:00 -1°C° 0 mm 1 mps 693 mmHg 38%
01:00 -1°C° 0 mm 1 mps 693 mmHg 38%
02:00 -1°C° 0 mm 1 mps 694 mmHg 38%
03:00 -2°C° 0 mm 1 mps 694 mmHg 38%
04:00 -2°C° 0 mm 1 mps 694 mmHg 39%
05:00 -2°C° 0 mm 1 mps 693 mmHg 39%
06:00 -2°C° 0 mm 1 mps 693 mmHg 40%
07:00 -1°C° 0 mm 1 mps 694 mmHg 38%
08:00 -1°C° 0 mm 1 mps 694 mmHg 36%
09:00 0°C° 0 mm 1 mps 694 mmHg 35%
10:00 +1°C° 0 mm 1 mps 694 mmHg 33%
11:00 +2°C° 0 mm 0 mps 693 mmHg 32%
12:00 +3°C° 0 mm 0 mps 693 mmHg 30%
13:00 +3°C° 0 mm 0 mps 693 mmHg 30%
14:00 +3°C° 0 mm 0 mps 693 mmHg 31%
15:00 +4°C° 0 mm 0 mps 693 mmHg 31%
16:00 +2°C° 0 mm 0 mps 693 mmHg 34%
17:00 +1°C° 0 mm 0 mps 692 mmHg 37%
18:00 0°C° 0 mm 0 mps 692 mmHg 40%
19:00 0°C° 0 mm 1 mps 693 mmHg 41%
20:00 0°C° 0 mm 1 mps 693 mmHg 41%
21:00 0°C° 0 mm 1 mps 693 mmHg 42%
22:00 0°C° 0 mm 1 mps 693 mmHg 42%
23:00 0°C° 0 mm 1 mps 692 mmHg 42%

27 January, Wednesday

Time Temperature Precipitation Wind Pressure Humidity
00:00 0°C° 0 mm 1 mps 692 mmHg 43%
01:00 0°C° 0 mm 1 mps 692 mmHg 42%
02:00 0°C° 0 mm 1 mps 692 mmHg 42%
03:00 0°C° 0 mm 1 mps 691 mmHg 42%
04:00 -1°C° 0 mm 1 mps 691 mmHg 43%
05:00 -1°C° 0 mm 1 mps 691 mmHg 44%
06:00 -1°C° 0 mm 1 mps 690 mmHg 44%
07:00 0°C° 0 mm 1 mps 691 mmHg 42%
08:00 0°C° 0 mm 0 mps 691 mmHg 40%
09:00 +1°C° 0 mm 0 mps 691 mmHg 38%
10:00 +2°C° 0 mm 0 mps 690 mmHg 37%
11:00 +3°C° 0 mm 0 mps 690 mmHg 35%
12:00 +3°C° 0 mm 0 mps 690 mmHg 34%
13:00 +4°C° 0 mm 0 mps 689 mmHg 34%
14:00 +4°C° 0 mm 0 mps 689 mmHg 34%
15:00 +4°C° 0 mm 0 mps 688 mmHg 33%
16:00 +3°C° 0 mm 0 mps 688 mmHg 37%
17:00 +2°C° 0 mm 0 mps 687 mmHg 40%
18:00 0°C° 0 mm 0 mps 687 mmHg 43%
19:00 +1°C° 0 mm 1 mps 687 mmHg 44%
20:00 +1°C° 0 mm 1 mps 686 mmHg 44%
21:00 +1°C° 0 mm 1 mps 686 mmHg 45%
22:00 +1°C° 0.1 mm 1 mps 686 mmHg 46%
23:00 +2°C° 0.1 mm 1 mps 685 mmHg 47%
Show more